{"data":{"norad_id":48426,"epoch":"2026-09-21T21:10:15.619872Z","epoch_age_seconds":64865,"freshness":"FRESH","line1":"1 48426U 21039D   26264.88212523  .00003965  00000+0  22174-3 0  9991","line2":"2 48426  34.9977  87.3420 0003167  70.5769 289.5285 15.12947534294870","mean_motion":15.12947534,"eccentricity":0.0003167,"inclination_deg":34.9977,"raan_deg":87.342,"arg_perigee_deg":70.5769,"mean_anomaly_deg":289.5285,"bstar":0.00022174,"rev_number":29487,"period_min":95.178449195318,"perigee_km":525.02978889247,"apogee_km":529.40363993518,"semimajor_km":6905.3537144138,"source":"CELESTRAK","updated_at":"2026-09-22T09:00:23.331064Z"}}